[[{"header":{"parameterUnit":"m.s-1","parameterCategory":2,"la1":30.2991,"la2":30.254,"lo1":-89.0895,"lo2":-89.0444,"dy":0.0017,"dx":0.0017,"nx":28,"ny":28,"refTime":"2024-06-25T09:00:00:Z","depth":"0","parameterNumber":2,"parameterNumberName":"U-component_of_CURRENTS"},"data":[0,0,0,0,0,0,0,0,0,0,0,0,0,0,0,0,0,0,0,0,0,0,0,0,0,0,0,0,0,0,0,0,0,0,0,0,0,0,0,0,0,0,0,0,0,0,0,0,0,0,0,0,0,0,0,0,0,0,-0.3365,-0.3365,0,-0.3335,-0.3335,-0.3334,-0.3252,-0.3251,-0.3249,-0.3248,-0.3139,-0.3138,-0.3136,0,0,0,0,0,0,0,0,0,0,0,0,0,-0.3293,-0.3295,-0.3365,-0.3365,-0.3365,-0.3335,-0.3335,-0.3334,-0.3253,-0.3251,-0.3249,-0.3248,-0.314,-0.3138,-0.3136,0,0,0,0,0,0,0,0,0,0,0,0,0,-0.3297,-0.3296,-0.3365,-0.3323,-0.332,-0.3336,-0.3335,-0.3334,-0.3253,-0.3251,-0.3249,-0.3247,-0.314,-0.3138,-0.3136,-0.3163,0,0,-0.3128,-0.3127,0,0,0,0,0,0,0,0,-0.3297,-0.3299,-0.3329,-0.3326,-0.3322,-0.3299,-0.327,-0.3274,-0.3253,-0.3274,-0.3248,-0.3246,-0.3189,-0.3183,-0.3178,-0.3158,-0.3154,-0.3128,-0.3127,-0.3126,-0.3125,0,0,0,0,0,0,0,-0.3297,-0.3299,-0.3349,-0.333,-0.3325,-0.3287,-0.3285,-0.327,-0.3239,-0.3272,-0.3267,-0.3271,-0.3186,-0.318,-0.3174,-0.3152,-0.3128,-0.3126,-0.3125,-0.3124,-0.3149,-0.3151,0,0,0,0,0,0,-0.3314,-0.33,-0.335,-0.3348,-0.3308,-0.3291,-0.3288,-0.3305,-0.3241,-0.3231,-0.3273,-0.3267,-0.3185,-0.3177,-0.317,-0.3197,-0.3126,-0.3124,-0.3122,-0.3147,-0.3149,-0.3151,0,0,0,0,0,0,-0.3313,-0.3319,-0.3351,-0.3325,-0.3327,-0.3295,-0.3314,-0.3306,-0.3289,-0.3243,-0.323,-0.3263,-0.3183,-0.3173,-0.3157,-0.3192,-0.3123,-0.312,-0.3144,-0.3147,-0.315,-0.3252,0,0,0,0,0,0,-0.3311,-0.3319,-0.3331,-0.3327,-0.3329,-0.3361,-0.3316,-0.3307,-0.3297,-0.3289,-0.3231,-0.3219,-0.3181,-0.3161,-0.3154,-0.3187,-0.3118,-0.3141,-0.3146,-0.3149,-0.3246,-0.3258,-0.3268,0,0,0,0,0,-0.3309,-0.3333,-0.3332,-0.3337,-0.3349,-0.3363,-0.336,-0.3326,-0.3299,-0.33,-0.3263,-0.322,-0.3181,-0.316,-0.3152,-0.3185,-0.314,-0.3144,-0.3149,-0.324,-0.3255,-0.3268,0,0,0,0,0,0,-0.3306,-0.3328,-0.3325,-0.3355,-0.3361,-0.335,-0.3348,-0.3332,-0.3306,-0.3291,-0.324,-0.3227,-0.323,-0.3198,-0.3176,-0.3207,-0.3157,-0.3161,-0.323,-0.3243,-0.3254,-0.3271,-0.3117,0,0,0,0,0,-0.3317,-0.3335,-0.3353,-0.3372,-0.3381,-0.3367,-0.3365,-0.335,-0.3332,-0.3317,-0.3281,-0.3252,-0.325,-0.3235,-0.322,-0.3231,-0.3206,-0.3251,-0.3263,-0.3272,-0.3283,-0.3282,-0.3294,-0.3167,-0.3167,-0.3167,0,0,-0.3316,-0.3335,-0.3341,-0.3372,-0.3371,-0.3388,-0.3359,-0.3365,-0.3373,-0.3312,-0.3301,-0.3288,-0.3263,-0.3278,-0.3277,-0.3249,-0.3296,-0.3278,-0.3287,-0.3292,-0.3288,-0.33,-0.3311,-0.317,-0.3169,-0.3169,0,0,-0.3323,-0.335,-0.3362,-0.3379,-0.3394,-0.3399,-0.3405,-0.3402,-0.3394,-0.3397,-0.3367,-0.3381,-0.3346,-0.3355,-0.3352,-0.3421,-0.3359,-0.3411,-0.3476,-0.3475,-0.3485,-0.3494,-0.3479,-0.3485,-0.3413,-0.3413,-0.3413,0,-0.3319,-0.3348,-0.3366,-0.3387,-0.3405,-0.3408,-0.3428,-0.3434,-0.3422,-0.3438,-0.34,-0.3417,-0.3393,-0.3443,-0.3467,-0.3448,-0.3422,-0.3423,-0.3489,-0.3497,-0.3504,-0.3486,-0.3492,-0.3419,-0.3418,-0.3417,-0.3417,0,-0.3332,-0.3358,-0.3372,-0.3404,-0.3429,-0.345,-0.3476,-0.3493,-0.3489,-0.3498,-0.3539,-0.3525,-0.3535,-0.3544,-0.352,-0.3579,-0.3536,-0.3505,-0.3452,-0.3523,-0.35,-0.3504,-0.3426,-0.3424,-0.3423,-0.3421,0,0,-0.3312,-0.3367,-0.3371,-0.3394,-0.3444,-0.3465,-0.351,-0.3559,-0.3591,-0.3599,-0.3639,-0.367,-0.3671,-0.367,-0.366,-0.3669,-0.3702,-0.3609,-0.3607,-0.3591,-0.3682,-0.3577,-0.357,-0.3669,-0.367,-0.3671,-0.3646,0,-0.3311,-0.3351,-0.3388,-0.3432,-0.3458,-0.3506,-0.355,-0.36,-0.363,-0.3669,-0.3704,-0.3727,-0.3716,-0.372,-0.374,-0.3701,-0.3716,-0.371,-0.362,-0.3617,-0.3511,-0.3573,-0.3339,-0.329,-0.365,-0.3651,-0.3651,0,-0.3306,-0.334,-0.3376,-0.3458,-0.3476,-0.3506,-0.3595,-0.3634,-0.3714,-0.3736,-0.3793,-0.3801,-0.3847,-0.3806,-0.3808,-0.3795,-0.3757,-0.3729,-0.3726,-0.3595,-0.3519,-0.3278,-0.3283,-0.3053,-0.3657,-0.3656,-0.3656,0,-0.3266,-0.3337,-0.3365,-0.3389,-0.3475,-0.351,-0.3561,-0.365,-0.3692,-0.3773,-0.3796,-0.386,-0.3856,-0.385,-0.3803,-0.3797,-0.3775,-0.3752,-0.3636,-0.3627,-0.3394,-0.3362,-0.316,-0.3764,-0.3764,-0.3764,-0.3764,0,-0.3249,-0.3271,-0.3346,-0.3357,-0.3414,-0.3487,-0.355,-0.3615,-0.3698,-0.3747,-0.3816,-0.3843,-0.386,-0.3851,-0.382,-0.3731,-0.3786,-0.366,-0.362,-0.3423,-0.3395,-0.3156,-0.3189,-0.3763,-0.3763,-0.3763,-0.3764,0,-0.3179,-0.3226,-0.3265,-0.3355,-0.3386,-0.342,-0.3525,-0.3579,-0.3654,-0.3713,-0.3733,-0.3812,-0.3799,-0.3807,-0.3776,-0.3717,-0.3556,-0.3622,-0.3386,-0.332,-0.2989,-0.3041,-0.3019,-0.2949,-0.349,-0.3488,-0.3486,0,-0.314,-0.3147,-0.3238,-0.3274,-0.3307,-0.3374,-0.3431,-0.3535,-0.359,-0.3682,-0.3703,-0.3728,-0.3719,-0.3649,-0.3546,-0.3468,-0.3447,-0.3221,-0.3184,-0.2943,-0.2971,-0.3071,-0.3022,-0.2916,-0.2909,-0.2903,-0.2899,0,-0.307,-0.3098,-0.3139,-0.3202,-0.3259,-0.3321,-0.3401,-0.3431,-0.3544,-0.3577,-0.3604,-0.3597,-0.3523,-0.3316,-0.3216,-0.3158,-0.3062,-0.3106,-0.2903,-0.2559,-0.261,-0.2526,-0.2966,-0.285,-0.2855,-0.2858,-0.2861,-0.2863,-0.3017,-0.3029,-0.3085,-0.3132,-0.3197,-0.3238,-0.3229,-0.3317,-0.3347,-0.3348,-0.344,-0.3313,-0.3079,-0.2891,-0.2788,-0.2397,-0.2733,-0.2289,-0.2389,-0.2523,-0.2404,-0.2744,-0.2558,-0.2561,-0.2563,-0.2566,-0.2568,0,-0.2964,-0.2983,-0.3022,-0.3064,-0.3073,-0.3137,-0.3186,-0.314,-0.3108,-0.3114,-0.3094,-0.2721,-0.2428,-0.2177,-0.1771,-0.1634,-0.1661,-0.1624,-0.164,-0.1641,-0.1898,-0.1803,-0.1383,-0.1384,-0.1384,-0.1384,-0.1384,-0.1385,-0.2941,-0.2947,-0.2955,-0.292,-0.2936,-0.2877,-0.2858,-0.2799,-0.2749,-0.2522,-0.2281,-0.2135,-0.1708,-0.1451,-0.1048,-0.103,-0.1011,-0.1102,-0.1212,-0.125,-0.1316,-0.1379,-0.1281,-0.0759,-0.0759,-0.0794,-0.0794,-0.0794]},{"header":{"parameterUnit":"m.s-1","parameterCategory":2,"la1":30.2991,"la2":30.254,"lo1":-89.0895,"lo2":-89.0444,"dy":0.0017,"dx":0.0017,"nx":28,"ny":28,"refTime":"2024-06-25T09:00:00:Z","depth":"0","parameterNumber":3,"parameterNumberName":"V-component_of_CURRENTS"},"data":[0,0,0,0,0,0,0,0,0,0,0,0,0,0,0,0,0,0,0,0,0,0,0,0,0,0,0,0,0,0,0,0,0,0,0,0,0,0,0,0,0,0,0,0,0,0,0,0,0,0,0,0,0,0,0,0,0,0,-0.1918,-0.1918,0,-0.1885,-0.1885,-0.1884,-0.1864,-0.1864,-0.1864,-0.1864,-0.1749,-0.1746,-0.1743,0,0,0,0,0,0,0,0,0,0,0,0,0,-0.1972,-0.1971,-0.1918,-0.1918,-0.1918,-0.1885,-0.1885,-0.1884,-0.1864,-0.1864,-0.1864,-0.1864,-0.175,-0.1747,-0.1743,0,0,0,0,0,0,0,0,0,0,0,0,0,-0.1944,-0.1971,-0.1918,-0.1905,-0.1903,-0.1885,-0.1885,-0.1884,-0.1864,-0.1864,-0.1864,-0.1864,-0.1751,-0.1747,-0.1742,-0.1714,0,0,-0.1728,-0.1726,0,0,0,0,0,0,0,0,-0.1946,-0.1942,-0.1907,-0.1906,-0.1904,-0.188,-0.1862,-0.1824,-0.1864,-0.1878,-0.1864,-0.1864,-0.1786,-0.1779,-0.1772,-0.1709,-0.1704,-0.1728,-0.1725,-0.1723,-0.1722,0,0,0,0,0,0,0,-0.1948,-0.1943,-0.1904,-0.1907,-0.1905,-0.1903,-0.1899,-0.1855,-0.183,-0.1877,-0.1875,-0.1873,-0.1784,-0.1776,-0.1769,-0.1702,-0.1728,-0.1724,-0.1721,-0.1719,-0.1579,-0.1578,0,0,0,0,0,0,-0.1953,-0.1945,-0.1905,-0.1903,-0.1926,-0.1902,-0.1897,-0.1887,-0.1832,-0.1825,-0.1873,-0.1872,-0.1784,-0.1774,-0.1765,-0.1734,-0.1723,-0.1719,-0.1716,-0.158,-0.1579,-0.1578,0,0,0,0,0,0,-0.1954,-0.195,-0.1907,-0.1925,-0.1919,-0.1901,-0.1889,-0.1886,-0.1882,-0.1831,-0.1822,-0.1873,-0.1784,-0.1771,-0.1721,-0.1729,-0.1717,-0.1713,-0.1581,-0.158,-0.1579,-0.1668,0,0,0,0,0,0,-0.1956,-0.195,-0.1947,-0.1925,-0.1919,-0.1901,-0.1889,-0.1885,-0.1881,-0.188,-0.1827,-0.1817,-0.1783,-0.1728,-0.1716,-0.1722,-0.1709,-0.1583,-0.1581,-0.1579,-0.1666,-0.1669,-0.1672,0,0,0,0,0,-0.1958,-0.1967,-0.1947,-0.1942,-0.1914,-0.1901,-0.1897,-0.1884,-0.1881,-0.188,-0.1839,-0.1819,-0.1708,-0.1724,-0.171,-0.1715,-0.1584,-0.1581,-0.1579,-0.1665,-0.1669,-0.1672,0,0,0,0,0,0,-0.1996,-0.1965,-0.1943,-0.1942,-0.192,-0.1898,-0.1905,-0.1889,-0.1858,-0.1859,-0.1807,-0.1793,-0.1753,-0.1711,-0.173,-0.1664,-0.1642,-0.1637,-0.1711,-0.1715,-0.1718,-0.1756,-0.1705,0,0,0,0,0,-0.1998,-0.1995,-0.1959,-0.1959,-0.1951,-0.1925,-0.192,-0.1909,-0.188,-0.1868,-0.182,-0.1771,-0.1732,-0.1707,-0.166,-0.1625,-0.1605,-0.1615,-0.1618,-0.1621,-0.1639,-0.1601,-0.1604,-0.1571,-0.1571,-0.1571,0,0,-0.2015,-0.1998,-0.1996,-0.1967,-0.1953,-0.195,-0.1923,-0.1924,-0.1918,-0.1858,-0.1828,-0.178,-0.1723,-0.1687,-0.1665,-0.1655,-0.1621,-0.1619,-0.1623,-0.1639,-0.1599,-0.1603,-0.1606,-0.1569,-0.157,-0.157,0,0,-0.2059,-0.2029,-0.2042,-0.2023,-0.2003,-0.1981,-0.1981,-0.1947,-0.193,-0.1892,-0.1851,-0.181,-0.1734,-0.1703,-0.1679,-0.1667,-0.164,-0.1643,-0.1694,-0.1657,-0.166,-0.1663,-0.1661,-0.1663,-0.1645,-0.1646,-0.1646,0,-0.2082,-0.2082,-0.2045,-0.2051,-0.2043,-0.1997,-0.2008,-0.1983,-0.1933,-0.1917,-0.1891,-0.1796,-0.1749,-0.1721,-0.1721,-0.168,-0.1663,-0.1693,-0.1666,-0.1668,-0.167,-0.1666,-0.1667,-0.165,-0.1649,-0.1649,-0.1648,0,-0.2132,-0.2126,-0.2136,-0.2118,-0.2104,-0.2108,-0.2064,-0.204,-0.2005,-0.1974,-0.1927,-0.1858,-0.1804,-0.178,-0.1753,-0.1737,-0.1724,-0.1679,-0.167,-0.1679,-0.1674,-0.1673,-0.1655,-0.1654,-0.1653,-0.1652,0,0,-0.2194,-0.2175,-0.2176,-0.2171,-0.2138,-0.2131,-0.2119,-0.2089,-0.2084,-0.202,-0.2003,-0.194,-0.1901,-0.187,-0.1819,-0.1793,-0.1796,-0.1752,-0.1748,-0.1777,-0.1741,-0.164,-0.163,-0.1746,-0.1746,-0.1746,-0.1741,0,-0.2242,-0.2264,-0.224,-0.225,-0.2251,-0.2202,-0.2189,-0.2156,-0.2117,-0.2079,-0.2017,-0.1972,-0.1934,-0.1906,-0.188,-0.1803,-0.1795,-0.1803,-0.1705,-0.1703,-0.1633,-0.1626,-0.1442,-0.1413,-0.1741,-0.1741,-0.1741,0,-0.2291,-0.2296,-0.232,-0.2297,-0.2294,-0.2294,-0.2263,-0.2245,-0.219,-0.2156,-0.2114,-0.2052,-0.2006,-0.1959,-0.188,-0.1886,-0.1836,-0.1785,-0.1782,-0.1659,-0.16,-0.1448,-0.1399,-0.1062,-0.174,-0.174,-0.174,0,-0.2339,-0.2344,-0.2363,-0.2357,-0.2331,-0.2334,-0.2315,-0.2274,-0.225,-0.2201,-0.2171,-0.2113,-0.2062,-0.1993,-0.1903,-0.1884,-0.1821,-0.1767,-0.1644,-0.1638,-0.1447,-0.1422,-0.1079,-0.1729,-0.1729,-0.1729,-0.1729,0,-0.2383,-0.2394,-0.2388,-0.2397,-0.2415,-0.2377,-0.2381,-0.2356,-0.2307,-0.2286,-0.2212,-0.2186,-0.2064,-0.2006,-0.1931,-0.1793,-0.1841,-0.1661,-0.162,-0.1471,-0.145,-0.112,-0.1025,-0.1729,-0.1729,-0.1729,-0.1729,0,-0.242,-0.2417,-0.2438,-0.2436,-0.2437,-0.2447,-0.2417,-0.2417,-0.2361,-0.2329,-0.2307,-0.2229,-0.2156,-0.2056,-0.1946,-0.1808,-0.1514,-0.1652,-0.1506,-0.1446,-0.0957,-0.0878,-0.0679,-0.0543,-0.1476,-0.1473,-0.1471,0,-0.2436,-0.2454,-0.2479,-0.2501,-0.2505,-0.2507,-0.251,-0.2454,-0.2441,-0.2364,-0.2353,-0.2275,-0.2238,-0.2039,-0.1794,-0.1626,-0.1452,-0.1313,-0.122,-0.0898,-0.078,-0.0798,-0.07,-0.102,-0.1014,-0.1009,-0.1005,0,-0.247,-0.2486,-0.251,-0.2564,-0.2585,-0.259,-0.2584,-0.2574,-0.2503,-0.2478,-0.2455,-0.2422,-0.2181,-0.19,-0.1618,-0.1454,-0.1026,-0.1208,-0.0884,-0.0403,-0.039,-0.0249,-0.1093,-0.0963,-0.0968,-0.0971,-0.0973,-0.0975,-0.2496,-0.2531,-0.2577,-0.2626,-0.2656,-0.2678,-0.2683,-0.2672,-0.2658,-0.2607,-0.2569,-0.2404,-0.1912,-0.1484,-0.1292,-0.0557,-0.0757,-0.0289,-0.0233,-0.0293,-0.0093,-0.0867,-0.0675,-0.0677,-0.0679,-0.0681,-0.0683,0,-0.2535,-0.258,-0.2636,-0.2697,-0.2752,-0.2739,-0.2737,-0.2733,-0.2748,-0.2607,-0.2594,-0.1902,-0.1407,-0.0828,0.0061,0.0435,0.0454,0.0628,0.0716,0.0758,0.0117,0.022,0.0632,0.0632,0.0631,0.0631,0.0631,0.063,-0.2551,-0.2628,-0.2665,-0.2771,-0.2813,-0.2851,-0.285,-0.2839,-0.2707,-0.2363,-0.1896,-0.1524,-0.0446,0.0503,0.1358,0.1413,0.1637,0.1564,0.1609,0.13,0.1221,0.1145,0.1276,0.1902,0.1904,0.2288,0.2293,0.2296]}],[{"header":{"parameterUnit":"m.s-1","parameterCategory":2,"la1":30.2991,"la2":30.254,"lo1":-89.0895,"lo2":-89.0444,"dy":0.0017,"dx":0.0017,"nx":28,"ny":28,"refTime":"2024-06-25T09:00:00:Z","depth":"2","parameterNumber":2,"parameterNumberName":"U-component_of_CURRENTS"},"data":[0,0,0,0,0,0,0,0,0,0,0,0,0,0,0,0,0,0,0,0,0,0,0,0,0,0,0,0,0,0,0,0,0,0,0,0,0,0,0,0,0,0,0,0,0,0,0,0,0,0,0,0,0,0,0,0,0,0,-0.1988,-0.1989,0,-0.2076,-0.2077,-0.2078,-0.2154,-0.2155,-0.2155,-0.2156,-0.2347,-0.2352,-0.2356,0,0,0,0,0,0,0,0,0,0,0,0,0,-0.1925,-0.1926,-0.1988,-0.1989,-0.1989,-0.2076,-0.2077,-0.2079,-0.2154,-0.2155,-0.2156,-0.2156,-0.2346,-0.2351,-0.2357,0,0,0,0,0,0,0,0,0,0,0,0,0,-0.1979,-0.1926,-0.1988,-0.2035,-0.204,-0.2075,-0.2077,-0.2079,-0.2154,-0.2155,-0.2156,-0.2157,-0.2344,-0.2351,-0.2357,-0.2382,0,0,-0.2378,-0.2381,0,0,0,0,0,0,0,0,-0.1976,-0.1982,-0.2028,-0.2032,-0.2038,-0.2102,-0.2125,-0.2184,-0.2154,-0.2114,-0.2156,-0.2157,-0.2272,-0.2285,-0.2303,-0.2391,-0.2399,-0.2379,-0.2383,-0.2386,-0.2388,0,0,0,0,0,0,0,-0.1972,-0.1979,-0.2026,-0.2028,-0.2034,-0.2066,-0.2074,-0.2137,-0.2192,-0.2118,-0.2123,-0.2127,-0.2276,-0.2296,-0.2308,-0.2402,-0.2379,-0.2385,-0.2389,-0.2392,-0.2418,-0.2415,0,0,0,0,0,0,-0.1952,-0.1975,-0.2023,-0.2028,-0.2005,-0.2066,-0.2076,-0.2083,-0.2189,-0.2204,-0.2126,-0.213,-0.2284,-0.23,-0.2315,-0.2372,-0.2386,-0.2392,-0.2396,-0.2421,-0.2417,-0.2413,0,0,0,0,0,0,-0.1951,-0.1956,-0.2019,-0.2001,-0.2011,-0.2065,-0.2074,-0.2084,-0.2124,-0.2194,-0.2212,-0.2157,-0.2285,-0.2305,-0.2308,-0.2379,-0.2395,-0.2402,-0.2425,-0.242,-0.2415,-0.2473,0,0,0,0,0,0,-0.1948,-0.1955,-0.1967,-0.2,-0.2011,-0.2056,-0.2073,-0.2085,-0.2123,-0.213,-0.2226,-0.2243,-0.2287,-0.2296,-0.2314,-0.2389,-0.2407,-0.243,-0.2423,-0.2417,-0.2475,-0.247,-0.2466,0,0,0,0,0,-0.1946,-0.1946,-0.1967,-0.1973,-0.2021,-0.2056,-0.2067,-0.2109,-0.2124,-0.2148,-0.2146,-0.2241,-0.227,-0.2298,-0.2321,-0.24,-0.2433,-0.2425,-0.2417,-0.2477,-0.2471,-0.2466,0,0,0,0,0,0,-0.1909,-0.1954,-0.1978,-0.1989,-0.203,-0.2069,-0.2085,-0.2116,-0.2139,-0.2149,-0.2198,-0.2213,-0.2246,-0.227,-0.23,-0.2366,-0.2369,-0.2366,-0.2407,-0.2402,-0.2397,-0.2431,-0.2413,0,0,0,0,0,-0.1909,-0.1927,-0.1975,-0.1981,-0.2002,-0.2048,-0.2071,-0.2113,-0.213,-0.2145,-0.2178,-0.2201,-0.2228,-0.2269,-0.2286,-0.2336,-0.2346,-0.2386,-0.2382,-0.2379,-0.2406,-0.2398,-0.2399,-0.2388,-0.2388,-0.2389,0,0,-0.1898,-0.1918,-0.1933,-0.1977,-0.2007,-0.2055,-0.2065,-0.2111,-0.2159,-0.2162,-0.2198,-0.2193,-0.2221,-0.2257,-0.2279,-0.23,-0.238,-0.2369,-0.2369,-0.2398,-0.2391,-0.2393,-0.2395,-0.2383,-0.2384,-0.2385,0,0,-0.1895,-0.1901,-0.194,-0.1973,-0.2032,-0.2062,-0.2079,-0.2125,-0.2157,-0.2184,-0.2177,-0.2187,-0.2237,-0.2267,-0.2293,-0.2268,-0.2339,-0.2273,-0.2329,-0.232,-0.2323,-0.2327,-0.2343,-0.2347,-0.2296,-0.2296,-0.2296,0,-0.1889,-0.1934,-0.1953,-0.1999,-0.2021,-0.2066,-0.2118,-0.216,-0.2194,-0.22,-0.2202,-0.2211,-0.2258,-0.2302,-0.2293,-0.2283,-0.227,-0.2372,-0.2325,-0.2327,-0.233,-0.2346,-0.235,-0.2298,-0.2298,-0.2297,-0.2297,0,-0.1929,-0.1972,-0.1982,-0.2057,-0.2084,-0.2126,-0.2181,-0.2212,-0.2238,-0.226,-0.2279,-0.2287,-0.23,-0.2318,-0.2325,-0.2361,-0.2342,-0.2312,-0.2367,-0.2337,-0.2352,-0.2356,-0.23,-0.23,-0.2299,-0.2299,0,0,-0.1903,-0.2002,-0.2008,-0.2046,-0.212,-0.2137,-0.2208,-0.2264,-0.2299,-0.2323,-0.234,-0.2388,-0.2371,-0.2391,-0.2392,-0.2409,-0.2438,-0.2381,-0.2379,-0.2448,-0.2423,-0.2229,-0.2215,-0.2389,-0.239,-0.239,-0.2431,0,-0.1939,-0.2028,-0.2064,-0.213,-0.2177,-0.2216,-0.2264,-0.2313,-0.235,-0.2365,-0.2387,-0.2399,-0.2409,-0.2418,-0.2435,-0.2418,-0.2446,-0.2431,-0.2398,-0.2398,-0.2271,-0.2212,-0.2029,-0.2032,-0.2435,-0.2435,-0.2436,0,-0.1971,-0.2028,-0.2111,-0.217,-0.2188,-0.2233,-0.2286,-0.2337,-0.2384,-0.2412,-0.2432,-0.2421,-0.246,-0.2452,-0.2474,-0.2452,-0.2457,-0.2451,-0.2451,-0.226,-0.2209,-0.2118,-0.2023,-0.2442,-0.2442,-0.2441,-0.2441,0,-0.1937,-0.2037,-0.2094,-0.2119,-0.2211,-0.2244,-0.2283,-0.2346,-0.2363,-0.2431,-0.2438,-0.2466,-0.2472,-0.2477,-0.2466,-0.2474,-0.2455,-0.2463,-0.2304,-0.2293,-0.2128,-0.2097,-0.2485,-0.2485,-0.2485,-0.2485,-0.2485,0,-0.1936,-0.198,-0.2088,-0.2121,-0.2155,-0.2226,-0.2258,-0.2321,-0.2375,-0.2365,-0.2444,-0.2432,-0.2471,-0.2448,-0.2459,-0.2364,-0.2453,-0.2309,-0.2276,-0.2133,-0.2104,-0.2449,-0.2445,-0.2486,-0.2486,-0.2486,-0.2485,0,-0.1872,-0.1967,-0.2017,-0.212,-0.2146,-0.2157,-0.221,-0.2221,-0.2325,-0.2322,-0.2333,-0.2392,-0.2359,-0.2366,-0.2367,-0.2327,-0.2282,-0.2235,-0.2067,-0.2009,-0.2151,-0.2148,-0.209,-0.2084,-0.2078,-0.2073,-0.2069,0,-0.1838,-0.1872,-0.1968,-0.1982,-0.2029,-0.2065,-0.2075,-0.2175,-0.2157,-0.2267,-0.2213,-0.2238,-0.2181,-0.2109,-0.2021,-0.1968,-0.2109,-0.1799,-0.1775,-0.2129,-0.2105,-0.2111,-0.2115,-0.1608,-0.1601,-0.1595,-0.159,0,-0.1745,-0.1791,-0.1842,-0.1874,-0.1894,-0.188,-0.1898,-0.1886,-0.1978,-0.2002,-0.2012,-0.201,-0.1924,-0.1744,-0.1648,-0.1604,-0.1785,-0.1666,-0.2075,-0.1697,-0.1665,-0.1644,-0.1667,-0.1535,-0.154,-0.1544,-0.1547,-0.155,-0.1654,-0.1671,-0.1741,-0.1727,-0.1739,-0.1691,-0.1644,-0.1669,-0.1648,-0.1673,-0.1743,-0.1697,-0.1636,-0.1353,-0.1273,-0.1223,-0.1355,-0.1348,-0.1372,-0.1402,-0.1298,-0.1253,-0.1031,-0.1033,-0.1036,-0.1038,-0.1039,0,-0.1497,-0.1564,-0.158,-0.158,-0.1494,-0.1552,-0.1499,-0.1426,-0.1376,-0.1439,-0.1452,-0.1221,-0.1065,-0.1043,-0.0858,-0.0814,-0.0872,-0.0807,-0.0907,-0.0957,-0.1003,-0.0886,-0.0507,-0.0506,-0.0505,-0.0504,0,0,-0.1452,-0.1425,-0.1447,-0.1312,-0.1307,-0.1187,-0.1142,-0.1091,-0.1077,-0.1037,-0.1015,-0.1065,-0.1007,-0.0766,-0.0687,-0.0594,-0.0797,-0.0557,-0.0971,-0.1141,-0.1187,-0.1277,-0.1145,0,0,0,0,0]},{"header":{"parameterUnit":"m.s-1","parameterCategory":2,"la1":30.2991,"la2":30.254,"lo1":-89.0895,"lo2":-89.0444,"dy":0.0017,"dx":0.0017,"nx":28,"ny":28,"refTime":"2024-06-25T09:00:00:Z","depth":"2","parameterNumber":3,"parameterNumberName":"V-component_of_CURRENTS"},"data":[0,0,0,0,0,0,0,0,0,0,0,0,0,0,0,0,0,0,0,0,0,0,0,0,0,0,0,0,0,0,0,0,0,0,0,0,0,0,0,0,0,0,0,0,0,0,0,0,0,0,0,0,0,0,0,0,0,0,-0.0026,-0.0025,0,0.0073,0.0075,0.0076,0.0166,0.0167,0.0168,0.0169,0.0527,0.0535,0.0544,0,0,0,0,0,0,0,0,0,0,0,0,0,-0.0061,-0.0061,-0.0026,-0.0025,-0.0024,0.0073,0.0075,0.0076,0.0166,0.0167,0.0168,0.0169,0.0524,0.0534,0.0545,0,0,0,0,0,0,0,0,0,0,0,0,0,-0.0009,-0.0061,-0.0026,0.0029,0.0035,0.0073,0.0075,0.0077,0.0166,0.0167,0.0168,0.0169,0.052,0.0533,0.0546,0.0606,0,0,0.0587,0.0593,0,0,0,0,0,0,0,0,-0.0012,-0.0007,0.002,0.0026,0.0032,0.0105,0.0193,0.0266,0.0166,0.0121,0.0169,0.017,0.0406,0.0429,0.0447,0.0623,0.0639,0.0588,0.0596,0.0602,0.0606,0,0,0,0,0,0,0,-0.0016,-0.001,0.0017,0.0021,0.0028,0.0075,0.0084,0.0207,0.0264,0.0125,0.013,0.0135,0.0412,0.0434,0.0457,0.0644,0.0588,0.0599,0.0608,0.0613,0.0762,0.0758,0,0,0,0,0,0,-0.0041,-0.0015,0.0014,0.002,0.0008,0.0074,0.0084,0.0084,0.0257,0.0281,0.0134,0.0138,0.0411,0.0441,0.047,0.0526,0.0602,0.0614,0.0622,0.0766,0.0761,0.0757,0,0,0,0,0,0,-0.0043,-0.004,0.001,0.0002,0.0012,0.0073,0.0073,0.0085,0.0109,0.026,0.0291,0.0145,0.0413,0.0452,0.0519,0.0542,0.062,0.0632,0.077,0.0764,0.0759,0.0655,0,0,0,0,0,0,-0.0044,-0.0041,-0.0046,0.0,0.0011,0.0024,0.0071,0.0086,0.0108,0.0116,0.0281,0.0314,0.0416,0.0497,0.0532,0.0562,0.0643,0.0776,0.0768,0.0761,0.0664,0.0646,0.0631,0,0,0,0,0,-0.0046,-0.0066,-0.0047,-0.0043,0.0001,0.0023,0.0033,0.0084,0.0107,0.0112,0.0178,0.0309,0.0474,0.0505,0.0547,0.0581,0.0779,0.077,0.0761,0.0671,0.065,0.0632,0,0,0,0,0,0,-0.0078,-0.0057,-0.0035,-0.0045,-0.0016,0.0037,0.0041,0.0074,0.0129,0.0137,0.0276,0.0312,0.0372,0.0461,0.0491,0.0582,0.0643,0.0642,0.056,0.0542,0.0526,0.0541,0.0654,0,0,0,0,0,-0.0092,-0.0103,-0.0066,-0.0074,-0.0065,-0.0013,0.0003,0.0033,0.0083,0.0108,0.0213,0.03,0.0365,0.0438,0.0507,0.0588,0.0696,0.062,0.0604,0.0591,0.0618,0.0739,0.074,0.0727,0.0727,0.0727,0,0,-0.0105,-0.0098,-0.01,-0.0082,-0.0055,-0.0054,0.0,0.0011,0.0023,0.0144,0.0194,0.0254,0.0358,0.0414,0.0454,0.0507,0.0642,0.0579,0.0568,0.0604,0.0731,0.0734,0.0736,0.0721,0.0722,0.0723,0,0,-0.0154,-0.0134,-0.0163,-0.0147,-0.0125,-0.0091,-0.0094,-0.0045,-0.001,0.0027,0.0092,0.0154,0.0277,0.0355,0.0409,0.0349,0.0531,0.0359,0.0346,0.0461,0.0466,0.0472,0.06,0.0618,0.038,0.038,0.038,0,-0.0169,-0.0196,-0.0165,-0.0188,-0.0177,-0.0115,-0.0132,-0.0093,-0.0029,0.0005,0.0025,0.0157,0.0256,0.0337,0.03,0.0332,0.0418,0.0426,0.045,0.0458,0.0466,0.0596,0.0618,0.0374,0.0374,0.0375,0.0376,0,-0.0238,-0.0253,-0.0269,-0.0274,-0.0258,-0.0263,-0.0212,-0.0183,-0.0136,-0.0083,-0.0014,0.0083,0.0182,0.0199,0.0249,0.0335,0.0383,0.0401,0.0522,0.0463,0.0601,0.0626,0.0365,0.0367,0.0369,0.0371,0,0,-0.0284,-0.0312,-0.0316,-0.0325,-0.0301,-0.0294,-0.0277,-0.0228,-0.0194,-0.0128,-0.0064,0.002,0.0092,0.0151,0.0225,0.0327,0.0452,0.0386,0.0395,0.0554,0.0722,0.0618,0.0637,0.0478,0.0482,0.0484,0.0795,0,-0.0339,-0.0403,-0.0393,-0.0424,-0.0442,-0.0382,-0.0369,-0.0315,-0.0238,-0.016,-0.0049,0.0034,0.007,0.0129,0.0228,0.0393,0.0512,0.0368,0.0721,0.0733,0.0682,0.0659,0.0553,0.0807,0.082,0.0824,0.0827,0,-0.041,-0.0436,-0.0492,-0.0492,-0.0492,-0.0495,-0.0432,-0.0407,-0.0289,-0.0225,-0.0116,-0.0014,0.0146,0.0174,0.047,0.0374,0.0543,0.0669,0.0685,0.0652,0.0674,0.0865,0.0853,0.087,0.0867,0.0864,0.0861,0,-0.0464,-0.0499,-0.0543,-0.0546,-0.0541,-0.0538,-0.0513,-0.0426,-0.0384,-0.0237,-0.0167,0.0009,0.0133,0.0341,0.058,0.0553,0.0904,0.0912,0.0987,0.0984,0.0997,0.0986,0.1138,0.1137,0.1137,0.1136,0.1135,0,-0.0531,-0.0561,-0.0571,-0.0597,-0.062,-0.0589,-0.0572,-0.052,-0.0419,-0.0359,-0.0192,-0.0086,0.018,0.0399,0.0606,0.086,0.0942,0.1,0.1054,0.0946,0.0928,0.1061,0.1048,0.1147,0.1145,0.1143,0.1141,0,-0.0595,-0.061,-0.0656,-0.066,-0.0659,-0.067,-0.0628,-0.0602,-0.0496,-0.04,-0.0347,-0.0109,0.0166,0.0425,0.0791,0.0894,0.115,0.1224,0.107,0.1095,0.1162,0.1139,0.1368,0.1367,0.1366,0.1365,0.1364,0,-0.0635,-0.0676,-0.0707,-0.0727,-0.0732,-0.0732,-0.0733,-0.0655,-0.0624,-0.0417,-0.0379,-0.0088,0.0111,0.0577,0.0804,0.1138,0.1192,0.1216,0.112,0.1155,0.1186,0.1164,0.1143,0.113,0.1127,0.1125,0.1123,0,-0.0698,-0.0718,-0.0748,-0.0794,-0.081,-0.082,-0.0811,-0.0796,-0.0692,-0.0587,-0.0402,-0.0209,0.0187,0.0483,0.0845,0.1014,0.1133,0.1177,0.1325,0.1022,0.0937,0.0963,0.0951,0.1105,0.1107,0.1108,0.1109,0.111,-0.0724,-0.0765,-0.0809,-0.0846,-0.0871,-0.0889,-0.0883,-0.0844,-0.0777,-0.0577,-0.0433,-0.0123,0.0138,0.0626,0.0828,0.0993,0.1048,0.1104,0.111,0.1118,0.0969,0.0879,0.1013,0.1015,0.1016,0.1017,0.1018,0,-0.0735,-0.0796,-0.0849,-0.089,-0.0917,-0.092,-0.0923,-0.0882,-0.0792,-0.0567,-0.0357,-0.007,0.0255,0.0543,0.0759,0.0899,0.0898,0.0923,0.0909,0.0926,0.0941,0.0781,0.0778,0.0778,0.0778,0.0778,0,0,-0.0739,-0.0806,-0.0847,-0.0908,-0.0935,-0.0953,-0.0948,-0.0865,-0.0725,-0.0484,-0.0264,0.0051,0.0323,0.044,0.0601,0.0702,0.0777,0.0691,0.0863,0.084,0.0853,0.1017,0.0785,0,0,0,0,0]}],[{"header":{"parameterUnit":"m.s-1","parameterCategory":2,"la1":30.2991,"la2":30.254,"lo1":-89.0895,"lo2":-89.0444,"dy":0.0017,"dx":0.0017,"nx":28,"ny":28,"refTime":"2024-06-25T09:00:00:Z","depth":"4","parameterNumber":2,"parameterNumberName":"U-component_of_CURRENTS"},"data":[0,0,0,0,0,0,0,0,0,0,0,0,0,0,0,0,0,0,0,0,0,0,0,0,0,0,0,0,0,0,0,0,0,0,0,0,0,0,0,0,0,0,0,0,0,0,0,0,0,0,0,0,0,0,0,0,0,0,-0.1198,-0.1198,0,-0.1269,-0.127,-0.1271,-0.1309,-0.1309,-0.131,-0.131,-0.1349,-0.1349,-0.135,0,0,0,0,0,0,0,0,0,0,0,0,0,-0.1085,-0.1086,-0.1197,-0.1199,-0.12,-0.1269,-0.127,-0.1271,-0.1309,-0.1309,-0.131,-0.131,-0.1348,-0.1349,-0.135,0,0,0,0,0,0,0,0,0,0,0,0,0,-0.114,-0.1087,-0.1197,-0.1229,-0.1233,-0.1269,-0.127,-0.1271,-0.1309,-0.1309,-0.131,-0.131,-0.1348,-0.1349,-0.135,-0.1346,0,0,-0.1353,-0.1354,0,0,0,0,0,0,0,0,-0.1137,-0.1144,-0.1224,-0.1227,-0.1232,-0.1283,-0.1245,-0.1295,-0.1309,-0.1277,-0.131,-0.1311,-0.1325,-0.1328,-0.1337,-0.1348,-0.135,-0.1354,-0.1354,-0.1355,-0.1355,0,0,0,0,0,0,0,-0.1133,-0.1141,-0.1223,-0.1225,-0.123,-0.1238,-0.1246,-0.1254,-0.1294,-0.128,-0.1284,-0.1296,-0.1327,-0.1336,-0.1338,-0.135,-0.1354,-0.1354,-0.1355,-0.1356,-0.1447,-0.1448,0,0,0,0,0,0,-0.113,-0.1137,-0.1221,-0.1225,-0.1188,-0.1239,-0.1248,-0.1264,-0.1295,-0.1302,-0.1296,-0.1298,-0.1334,-0.1337,-0.134,-0.141,-0.1355,-0.1356,-0.1356,-0.1445,-0.1447,-0.1449,0,0,0,0,0,0,-0.1128,-0.1137,-0.1218,-0.1185,-0.1196,-0.1241,-0.1258,-0.1265,-0.1297,-0.1308,-0.1313,-0.1323,-0.1334,-0.1338,-0.1375,-0.1409,-0.1356,-0.1357,-0.1443,-0.1446,-0.1448,-0.1505,0,0,0,0,0,0,-0.1124,-0.1136,-0.1154,-0.1185,-0.1198,-0.1258,-0.1258,-0.1266,-0.1304,-0.1307,-0.1333,-0.1336,-0.1335,-0.1374,-0.1377,-0.141,-0.1358,-0.1441,-0.1444,-0.1447,-0.1501,-0.1509,-0.1516,0,0,0,0,0,-0.112,-0.1145,-0.1155,-0.1166,-0.122,-0.1259,-0.1267,-0.1298,-0.1305,-0.1326,-0.1347,-0.1336,-0.1397,-0.1376,-0.1379,-0.1413,-0.1439,-0.1443,-0.1447,-0.1497,-0.1507,-0.1516,0,0,0,0,0,0,-0.1112,-0.1152,-0.1164,-0.1202,-0.1236,-0.1268,-0.1295,-0.131,-0.1343,-0.135,-0.1354,-0.136,-0.1405,-0.1403,-0.1379,-0.1451,-0.1418,-0.1423,-0.1455,-0.1465,-0.1473,-0.1458,-0.1359,0,0,0,0,0,-0.1116,-0.1144,-0.1182,-0.1214,-0.1233,-0.1265,-0.1288,-0.1309,-0.1338,-0.1354,-0.1376,-0.1398,-0.142,-0.1437,-0.1455,-0.149,-0.1464,-0.1516,-0.1524,-0.1531,-0.1523,-0.1517,-0.1522,-0.1462,-0.1462,-0.1462,0,0,-0.1126,-0.1149,-0.1168,-0.1214,-0.1242,-0.1281,-0.1281,-0.1324,-0.1362,-0.1351,-0.1414,-0.1425,-0.1436,-0.1481,-0.1501,-0.1485,-0.1536,-0.1536,-0.1541,-0.1529,-0.1521,-0.1527,-0.1532,-0.1465,-0.1464,-0.1464,0,0,-0.115,-0.1177,-0.1208,-0.1236,-0.1283,-0.1304,-0.1321,-0.1368,-0.1397,-0.1449,-0.1454,-0.1486,-0.1527,-0.1542,-0.1552,-0.1612,-0.1575,-0.1625,-0.1655,-0.1651,-0.1655,-0.1658,-0.1632,-0.1633,-0.1631,-0.1631,-0.1632,0,-0.1159,-0.1197,-0.1224,-0.1259,-0.1285,-0.1318,-0.1355,-0.1394,-0.145,-0.1469,-0.148,-0.1541,-0.1555,-0.1594,-0.1622,-0.1629,-0.1609,-0.1617,-0.1658,-0.1661,-0.1663,-0.1636,-0.1636,-0.1635,-0.1634,-0.1634,-0.1634,0,-0.12,-0.1237,-0.1258,-0.131,-0.1345,-0.138,-0.1431,-0.1474,-0.1509,-0.1539,-0.1594,-0.1617,-0.1645,-0.1666,-0.1664,-0.1697,-0.1671,-0.1665,-0.1628,-0.1672,-0.1642,-0.164,-0.1639,-0.1638,-0.1637,-0.1636,0,0,-0.1192,-0.127,-0.1278,-0.1301,-0.1369,-0.1394,-0.1465,-0.1519,-0.155,-0.1615,-0.1647,-0.1707,-0.1709,-0.172,-0.1726,-0.1731,-0.1739,-0.1709,-0.1708,-0.1672,-0.1711,-0.1598,-0.1585,-0.1738,-0.1738,-0.1738,-0.1682,0,-0.121,-0.1269,-0.1311,-0.1369,-0.1397,-0.1446,-0.1498,-0.1554,-0.1603,-0.1646,-0.1682,-0.1718,-0.1735,-0.1744,-0.1758,-0.174,-0.1738,-0.1754,-0.1683,-0.168,-0.1565,-0.1581,-0.1739,-0.168,-0.168,-0.168,-0.168,0,-0.1222,-0.1258,-0.1314,-0.1373,-0.1391,-0.1436,-0.1498,-0.1548,-0.1619,-0.1651,-0.1699,-0.1727,-0.176,-0.1759,-0.1759,-0.1766,-0.1743,-0.1727,-0.1725,-0.1594,-0.1564,-0.1628,-0.1676,-0.1677,-0.1677,-0.1677,-0.1677,0,-0.1166,-0.1251,-0.1287,-0.1311,-0.1393,-0.1427,-0.1472,-0.1547,-0.1576,-0.1649,-0.1668,-0.1722,-0.173,-0.1735,-0.1727,-0.1741,-0.1697,-0.171,-0.1586,-0.1577,-0.167,-0.1667,-0.1695,-0.1695,-0.1695,-0.1695,-0.1695,0,-0.1137,-0.1166,-0.1266,-0.128,-0.1315,-0.139,-0.1432,-0.1482,-0.1547,-0.1565,-0.1658,-0.1663,-0.1723,-0.1719,-0.1714,-0.1633,-0.1688,-0.1578,-0.1553,-0.1697,-0.1697,-0.1668,-0.1666,-0.1693,-0.1694,-0.1694,-0.1694,0,-0.1054,-0.1125,-0.1165,-0.1259,-0.1285,-0.1307,-0.1389,-0.1413,-0.149,-0.1514,-0.1534,-0.1607,-0.1595,-0.1632,-0.1616,-0.1587,-0.1541,-0.1497,-0.1629,-0.1615,-0.1429,-0.1431,-0.1354,-0.1349,-0.1346,-0.1342,-0.134,0,-0.1012,-0.1028,-0.1124,-0.1144,-0.1188,-0.124,-0.1267,-0.1359,-0.1384,-0.146,-0.1451,-0.1478,-0.1515,-0.1394,-0.1451,-0.142,-0.1413,-0.1387,-0.143,-0.1409,-0.1394,-0.1401,-0.1408,-0.1334,-0.1333,-0.1332,-0.1331,0,-0.0922,-0.0969,-0.1004,-0.1048,-0.1087,-0.1123,-0.1177,-0.1182,-0.1276,-0.1352,-0.1322,-0.1324,-0.1297,-0.1298,-0.1275,-0.1264,-0.141,-0.1348,-0.1356,-0.1397,-0.1384,-0.1374,-0.1385,-0.1317,-0.1319,-0.1321,-0.1321,0,-0.0852,-0.0855,-0.0912,-0.094,-0.0985,-0.1,-0.1047,-0.1071,-0.1099,-0.1197,-0.1169,-0.1207,-0.1256,-0.1212,-0.1194,-0.117,-0.117,-0.1157,-0.1176,-0.1191,-0.117,-0.1131,-0.0951,0,0,0,0,0,-0.0773,-0.0772,-0.0797,-0.0834,-0.0879,-0.0909,-0.0981,-0.1037,-0.1127,-0.1062,-0.1116,-0.1088,-0.1064,-0.1086,-0.1029,-0.1143,-0.1188,-0.1076,-0.1187,-0.1244,-0.1259,-0.1253,0,0,0,0,0,0,-0.0719,-0.074,-0.0761,-0.0743,-0.075,-0.0791,-0.0837,-0.0906,-0.0885,-0.0971,-0.0951,-0.1017,-0.1,-0.1061,-0.0998,-0.1007,-0.1057,-0.1104,-0.1101,-0.1236,-0.1249,-0.1262,-0.1261,0,0,0,0,0]},{"header":{"parameterUnit":"m.s-1","parameterCategory":2,"la1":30.2991,"la2":30.254,"lo1":-89.0895,"lo2":-89.0444,"dy":0.0017,"dx":0.0017,"nx":28,"ny":28,"refTime":"2024-06-25T09:00:00:Z","depth":"4","parameterNumber":3,"parameterNumberName":"V-component_of_CURRENTS"},"data":[0,0,0,0,0,0,0,0,0,0,0,0,0,0,0,0,0,0,0,0,0,0,0,0,0,0,0,0,0,0,0,0,0,0,0,0,0,0,0,0,0,0,0,0,0,0,0,0,0,0,0,0,0,0,0,0,0,0,-0.01,-0.0099,0,-0.0068,-0.0067,-0.0067,-0.004,-0.0039,-0.0039,-0.0038,-0.0004,-0.0004,-0.0003,0,0,0,0,0,0,0,0,0,0,0,0,0,-0.0132,-0.0132,-0.01,-0.0099,-0.0099,-0.0068,-0.0067,-0.0067,-0.004,-0.0039,-0.0039,-0.0038,-0.0004,-0.0004,-0.0003,0,0,0,0,0,0,0,0,0,0,0,0,0,-0.0113,-0.0132,-0.01,-0.008,-0.0078,-0.0068,-0.0067,-0.0067,-0.004,-0.0039,-0.0038,-0.0038,-0.0004,-0.0004,-0.0003,-0.0012,0,0,-0.0001,-0.0,0,0,0,0,0,0,0,0,-0.0114,-0.0112,-0.0083,-0.0081,-0.0079,-0.0055,-0.0066,-0.0048,-0.004,-0.0056,-0.0038,-0.0037,-0.002,-0.0018,-0.0016,-0.0011,-0.0009,-0.0001,-0.0,0.0,0.0,0,0,0,0,0,0,0,-0.0115,-0.0113,-0.0089,-0.0083,-0.008,-0.0071,-0.0068,-0.0063,-0.0044,-0.0055,-0.0052,-0.0046,-0.0019,-0.0017,-0.0015,-0.0009,-0.0001,-0.0,0.0,0.0001,0.0037,0.0037,0,0,0,0,0,0,-0.0117,-0.0114,-0.009,-0.0088,-0.0093,-0.0071,-0.0067,-0.0065,-0.0044,-0.0039,-0.0047,-0.0045,-0.0019,-0.0016,-0.0014,0.0004,-0.0,0.0001,0.0001,0.0036,0.0037,0.0037,0,0,0,0,0,0,-0.0118,-0.0115,-0.0091,-0.0099,-0.0095,-0.0071,-0.0069,-0.0065,-0.006,-0.0037,-0.0033,-0.0045,-0.0018,-0.0015,0.0002,0.0005,0.0001,0.0002,0.0035,0.0036,0.0037,0.0022,0,0,0,0,0,0,-0.0119,-0.0116,-0.0117,-0.0099,-0.0094,-0.0085,-0.0069,-0.0065,-0.0056,-0.0054,-0.0035,-0.0031,-0.0017,0.0001,0.0002,0.0005,0.0002,0.0035,0.0036,0.0037,0.0022,0.0022,0.0022,0,0,0,0,0,-0.012,-0.0122,-0.0117,-0.0114,-0.0096,-0.0085,-0.0082,-0.0063,-0.0057,-0.0057,-0.0036,-0.0032,0.0008,0.0001,0.0003,0.0007,0.0034,0.0035,0.0037,0.0022,0.0022,0.0022,0,0,0,0,0,0,-0.0126,-0.0118,-0.0113,-0.0109,-0.0098,-0.0079,-0.0076,-0.0067,-0.0053,-0.0053,-0.0029,-0.0024,-0.0007,0.0002,-0.0006,0.0022,0.0023,0.0025,0.0011,0.0012,0.0012,-0.0007,0.0003,0,0,0,0,0,-0.0131,-0.0138,-0.0121,-0.0119,-0.0114,-0.0098,-0.0092,-0.0085,-0.0068,-0.0061,-0.0041,-0.0021,-0.0002,0.0007,0.0023,0.0031,0.0058,0.0038,0.0038,0.0038,0.0026,0.008,0.0084,0.0041,0.0041,0.0041,0,0,-0.0133,-0.013,-0.0132,-0.0122,-0.0114,-0.0119,-0.0093,-0.0091,-0.0091,-0.0061,-0.005,-0.0022,0.0001,0.0019,0.0027,0.0027,0.0068,0.004,0.0039,0.0026,0.0081,0.0085,0.0089,0.0042,0.0042,0.0042,0,0,-0.0154,-0.0138,-0.0159,-0.0153,-0.0147,-0.0134,-0.0135,-0.0117,-0.0102,-0.0093,-0.0062,-0.0028,-0.0012,0.002,0.0033,0.0044,0.0068,0.0047,0.0031,0.0084,0.0088,0.0091,0.0143,0.0151,0.0047,0.0047,0.0047,0,-0.0158,-0.0181,-0.016,-0.0178,-0.0177,-0.0144,-0.0164,-0.0145,-0.0121,-0.0109,-0.0094,-0.0039,-0.0011,0.002,0.003,0.0044,0.0074,0.0026,0.0084,0.0088,0.0092,0.0144,0.0153,0.0046,0.0046,0.0046,0.0046,0,-0.02,-0.0217,-0.0224,-0.0239,-0.0232,-0.0241,-0.0213,-0.0203,-0.018,-0.0154,-0.0116,-0.0063,-0.0032,-0.0007,0.0011,0.0054,0.0068,0.0079,0.008,0.0095,0.0149,0.0159,0.0045,0.0046,0.0046,0.0046,0,0,-0.0218,-0.0252,-0.0255,-0.028,-0.0268,-0.027,-0.0265,-0.0249,-0.025,-0.0196,-0.0182,-0.0116,-0.0075,-0.0056,-0.001,0.0042,0.0111,0.0066,0.0069,0.0112,0.0228,0.0222,0.0232,0.0131,0.0133,0.0134,0.0259,0,-0.0262,-0.0319,-0.0316,-0.0359,-0.0382,-0.0353,-0.0352,-0.0328,-0.0295,-0.0266,-0.0184,-0.015,-0.0096,-0.0078,-0.0014,0.0075,0.0134,0.0076,0.0211,0.0215,0.0203,0.0242,0.0138,0.0267,0.0269,0.0271,0.0272,0,-0.0311,-0.0342,-0.0401,-0.0433,-0.0438,-0.0453,-0.045,-0.0444,-0.0387,-0.036,-0.0299,-0.0233,-0.014,-0.01,0.0067,0.0026,0.012,0.0196,0.0203,0.0203,0.0226,0.0247,0.029,0.0289,0.0287,0.0286,0.0285,0,-0.035,-0.0401,-0.0453,-0.0463,-0.0487,-0.0507,-0.0508,-0.0475,-0.0468,-0.0413,-0.0398,-0.0281,-0.022,-0.0087,0.0085,0.0073,0.027,0.0275,0.0362,0.0363,0.0336,0.0331,0.039,0.0389,0.0389,0.0389,0.0388,0,-0.0397,-0.044,-0.0482,-0.0511,-0.0562,-0.0556,-0.059,-0.0579,-0.055,-0.0529,-0.0445,-0.0394,-0.0214,-0.0074,0.0072,0.0255,0.0269,0.0363,0.0396,0.0329,0.0322,0.0344,0.0338,0.0394,0.0393,0.0392,0.0391,0,-0.0431,-0.0465,-0.0528,-0.0571,-0.0589,-0.062,-0.0646,-0.0657,-0.0635,-0.0607,-0.0588,-0.0464,-0.0278,-0.0086,0.0143,0.0235,0.041,0.0471,0.0394,0.0419,0.0467,0.0458,0.0565,0.0566,0.0567,0.0567,0.0568,0,-0.0453,-0.0496,-0.0568,-0.0605,-0.063,-0.0675,-0.0698,-0.0697,-0.0694,-0.0632,-0.0607,-0.0449,-0.0335,-0.0006,0.0171,0.0442,0.0474,0.0538,0.0493,0.0465,0.0486,0.0476,0.0466,0.0569,0.0569,0.0569,0.0569,0,-0.0486,-0.0519,-0.056,-0.0637,-0.0683,-0.0727,-0.0754,-0.0758,-0.073,-0.0721,-0.0586,-0.0427,-0.0221,0.0014,0.0224,0.0414,0.0476,0.0546,0.0545,0.0504,0.0471,0.0489,0.0478,0.0572,0.0572,0.0571,0.0571,0,-0.0495,-0.0531,-0.0592,-0.0652,-0.0714,-0.0748,-0.0765,-0.0734,-0.0723,-0.0643,-0.0591,-0.038,-0.0258,0.0002,0.02,0.038,0.0408,0.0427,0.0433,0.0432,0.0345,0.0281,0.0358,0,0,0,0,0,-0.0495,-0.054,-0.0601,-0.0669,-0.0728,-0.0761,-0.0785,-0.0786,-0.0761,-0.0658,-0.062,-0.0414,-0.013,-0.0014,0.0172,0.0189,0.0417,0.0403,0.0437,0.0585,0.0583,0.0502,0,0,0,0,0,0,-0.0497,-0.0559,-0.0594,-0.0662,-0.0709,-0.0766,-0.0777,-0.0761,-0.0692,-0.0643,-0.0471,-0.0406,-0.0111,-0.0217,0.0169,0.0217,0.0251,0.0537,0.0539,0.0587,0.0585,0.0582,0.0498,0,0,0,0,0]}]]